Fairfield, OH

5:10 AM EST on December 06, 2016 (GMT -0500)
Butler County Regional

Weather History for KHAO - October, 2012

Change the Weather History Date:

Saturday, October 27, 2012

  Actual Average (KCVG) Record (KCVG)
Temperature  
Mean Temperature 48 °F 52 °F  
Max Temperature 54 °F 62 °F 84 °F (1940)
Min Temperature 42 °F 42 °F 16 °F (1962)
Degree Days  
Heating Degree Days 18 13  
Month to date heating degree days 249  
Since 1 July heating degree days 307  
Cooling Degree Days 0 0  
Month to date cooling degree days 16  
Year to date cooling degree days 1121  
Moisture  
Dew Point 41 °F    
Average Humidity 79    
Maximum Humidity 93    
Minimum Humidity 61    
Precipitation  
Precipitation 0.04 in 0.11 in 2.14 in (1919)
Month to date precipitation 2.87  
Year to date precipitation 35.29  
Snow  
Snow 0.00 in 0.00 in 0.00 in ()
Month to date snowfall 0.3  
Since 1 July snowfall 0.3  
Since 1 September snowfall 0.3  
Snow Depth -    
Sea Level Pressure  
Sea Level Pressure 30.13 in    
Wind  
Wind Speed 9 mph (North)    
Max Wind Speed 14 mph    
Max Gust Speed 23 mph    
Visibility 8 miles    
Events Rain    
T = Trace of Precipitation, MM = Missing Value Source: NWS Daily Summary

Daily Weather History Graph

Daily Weather History Graph

Search for Another Location

Airport or City:

Trip Planner

Search our weather history database for the weather conditions in past years. The results will help you decide how hot, cold, wet, or windy it might be!

Date:

Astronomy

Oct. 27, 2012 Rise Set
Actual Time 8:01 AM EDT 6:42 PM EDT
Civil Twilight 7:33 AM EDT 7:09 PM EDT
Nautical Twilight 7:02 AM EDT 7:41 PM EDT
Astronomical Twilight 6:30 AM EDT 8:12 PM EDT
Moon 5:27 PM EDT (10/27) 5:55 AM EDT (10/27)
Length of Visible Light 11h 36m
Length of Day
10h 41m
Waxing Gibbous, 96% of the Moon is Illuminated
Oct 27
Waxing Gibbous
Oct 29
Full
Nov 6
Last Quarter
Nov 13
New
Nov 20
First Quarter

Hourly Weather History & Observations

Time (EDT) Temp. Windchill Dew Point Humidity Pressure Visibility Wind Dir Wind Speed Gust Speed Precip Events Conditions
12:20 AM 44.6 °F 40.2 °F 42.8 °F 93% 30.14 in 7.0 mi North 8.1 mph - 0.00 in Rain Light Rain
1:53 AM 46.0 °F 41.9 °F 43.0 °F 89% 30.13 in 10.0 mi NNW 8.1 mph - 0.00 in Rain Light Rain
2:01 AM 46.4 °F 42.4 °F 42.8 °F 87% 30.12 in 10.0 mi NNW 8.1 mph - 0.01 in Rain Light Rain
2:28 AM 44.6 °F 39.7 °F 42.8 °F 93% 30.11 in 6.0 mi NNW 9.2 mph - 0.02 in Rain Light Rain
2:37 AM 44.6 °F 39.7 °F 42.8 °F 93% 30.10 in 7.0 mi North 9.2 mph - 0.02 in Rain Light Rain
2:53 AM 45.0 °F 41.8 °F 43.0 °F 93% 30.12 in 8.0 mi North 5.8 mph - 0.02 in Rain Light Rain
3:53 AM 46.0 °F 40.6 °F 42.1 °F 86% 30.11 in 10.0 mi North 11.5 mph - 0.00 in   Overcast
4:53 AM 45.0 °F 40.6 °F 41.0 °F 86% 30.09 in 10.0 mi NNW 8.1 mph - N/A   Overcast
5:01 AM 44.6 °F 39.2 °F 41.0 °F 87% 30.09 in 10.0 mi North 10.4 mph - N/A   Overcast
5:53 AM 45.0 °F 41.2 °F 39.9 °F 82% 30.10 in 10.0 mi North 6.9 mph 18.4 mph N/A   Overcast
6:53 AM 44.1 °F 38.6 °F 41.0 °F 89% 30.12 in 4.0 mi North 10.4 mph - 0.00 in Rain Light Rain
7:25 AM 44.6 °F 39.7 °F 41.0 °F 87% 30.13 in 4.0 mi NNW 9.2 mph - 0.01 in Rain Light Rain
7:35 AM 44.6 °F 38.8 °F 41.0 °F 87% 30.13 in 4.0 mi NNW 11.5 mph 17.3 mph 0.01 in Rain Light Rain
7:41 AM 44.6 °F 39.7 °F 41.0 °F 87% 30.13 in 4.0 mi NNW 9.2 mph 17.3 mph 0.01 in Rain Light Rain
7:53 AM 44.1 °F 38.6 °F 41.0 °F 89% 30.14 in 4.0 mi NNW 10.4 mph - 0.01 in Rain Light Rain
8:17 AM 42.8 °F 37.5 °F 41.0 °F 93% 30.14 in 4.0 mi NNW 9.2 mph - 0.01 in Rain Light Rain
8:30 AM 42.8 °F 37.0 °F 39.2 °F 87% 30.14 in 3.0 mi NNW 10.4 mph - 0.01 in Rain Light Rain
8:53 AM 43.0 °F 37.2 °F 39.9 °F 89% 30.16 in 4.0 mi NNW 10.4 mph 23.0 mph 0.01 in Rain Light Rain
9:16 AM 44.6 °F 39.2 °F 39.2 °F 81% 30.16 in 10.0 mi NNW 10.4 mph - 0.00 in   Overcast
9:25 AM 44.6 °F 39.7 °F 39.2 °F 81% 30.16 in 10.0 mi North 9.2 mph - 0.00 in   Overcast
9:53 AM 44.1 °F 40.1 °F 39.0 °F 82% 30.17 in 10.0 mi North 6.9 mph 16.1 mph 0.00 in   Overcast
11:53 AM 46.9 °F - 39.9 °F 77% 30.16 in 10.0 mi NNE 9.2 mph - N/A   Mostly Cloudy
12:53 PM 51.1 °F - 41.0 °F 68% 30.15 in 10.0 mi North 10.4 mph - N/A   Mostly Cloudy
1:53 PM 52.0 °F - 42.1 °F 69% 30.12 in 10.0 mi North 13.8 mph - N/A   Overcast
2:53 PM 53.1 °F - 41.0 °F 64% 30.10 in 10.0 mi NNE 10.4 mph - N/A   Overcast
3:53 PM 53.1 °F - 39.9 °F 61% 30.09 in 10.0 mi North 10.4 mph - N/A   Overcast
4:53 PM 52.0 °F - 39.9 °F 63% 30.11 in 10.0 mi North 10.4 mph - N/A   Overcast
5:53 PM 52.0 °F - 39.0 °F 61% 30.11 in 10.0 mi NNE 9.2 mph - N/A   Mostly Cloudy
6:53 PM 51.1 °F - 39.0 °F 63% 30.13 in 10.0 mi NNW 3.5 mph - N/A   Overcast
7:53 PM 51.1 °F - 39.0 °F 63% 30.15 in 10.0 mi NE 5.8 mph - N/A   Overcast
8:53 PM 50.0 °F - 37.9 °F 63% 30.14 in 10.0 mi NNE 5.8 mph - N/A   Overcast
9:53 PM 50.0 °F - 37.9 °F 63% 30.14 in 10.0 mi Calm Calm - N/A   Overcast
10:53 PM 48.9 °F - 37.0 °F 64% 30.14 in 10.0 mi NNE 4.6 mph - N/A   Overcast